www.pogodaiklimat.ru

Погода и климат >> Архив погоды >> Россия >> Эвенкия >> Тура


АРХИВ ПОГОДЫ в Туре

Время (UTC), дата Ветер
(напр.,м/с)
 
Видим.   Явления Облачность Т
(С)
Тd
(С)
f
(%)
Тe
(С)
Тes
(С)
Комфортность P
(гПа)
Po
(гПа)
Тmin
(С)
Tmax
(С)
R
(мм)
R24
(мм)
S
(см)
00 15.08 СВ 2 20 км 10/10 600 м
[Cb cap]
+13.4 +7.7 68 +13 +13 1022.3 999.5 +12.9
03 15.08 С 3 20 км 8/8 600 м
[Cu med, cong]
+16.7 +7.3 54 +17 +18 1021.7 999.1
06 15.08 С 3 20 км 4/3 1000 м
[Sc Ci fib]
+18.8 +5.8 43 +19 +24 1020.9 998.4
09 15.08 СВ 3 20 км 3/3 1000 м
[Sc]
+20.2 +6.0 40 +21 +24 комфорт 1019.6 997.3
12 15.08 С 3 20 км 3/3 1000 м
[Sc]
+19.1 +5.5 41 +20 +20 1019.6 997.3 +20.4
15 15.08 СЗ 2 н/о мгла 3/3 1000 м
[Sc]
+13.5 +4.6 55 +13 +13 1021.6 998.8
18 15.08 С 1 н/о мгла 3/3 1000 м
[Sc]
+10.0 +4.7 70 +10 +10 1022.7 999.5
21 15.08 штиль 0 2000 м мгла 3/3 1000 м
[Sc]
+5.1 +3.7 91 +4 +4 1023.7 1000.1
00 16.08 Ю 1 500 м туман ?/? +5.9 +5.4 97 +5 +5 1024.1 1000.6 +4.2
03 16.08 Ю 1 10 км дым {туман} 10/10 600 м
[Cb cap]
+9.8 +4.4 69 +10 +10 1023.1 999.9
06 16.08 ЮЗ 2 20 км {туман} 8/5 1000 м
[Cu med, cong Ci sp]
+17.5 +6.4 48 +18 +22 1020.6 998.1
09 16.08 С 1 20 км 8/4 600 м
[Cb cap Ci fib]
+19.4 +4.5 37 +21 +24 комфорт 1019.4 997.1
12 16.08 С 2 10 км дым ясно +18.4 +3.5 37 +19 +19 1019.2 996.8 +20.0
15 16.08 СВ 1 н/о дым ясно +10.4 +3.6 63 +10 +10 1020.5 997.4
18 16.08 С 1 н/о дым 4/0
[Ci sp]
+7.1 +4.6 84 +6 +6 1021.8 998.4
21 16.08 штиль 0 2000 м мгла 3/0
[Ci sp]
+4.3 +3.3 93 +3 +3 1022.5 998.8
00 17.08 З 3 2000 м мгла 1/0
[Ci fib]
+5.5 +3.8 89 +2 +3 1022.7 999.1 +3.5
03 17.08 С 3 2000 м мгла 3/0
[Ac trans]
+12.4 +5.8 64 +11 +16 1021.3 998.3
06 17.08 СЗ 2 10 км дым 3/0
[Ac trans]
+20.0 +9.5 51 +22 +29 комфорт 1019.2 996.9
09 17.08 С 2 10 км дым 3/0
[Ci fib]
+22.9 +9.0 41 +24 +28 комфорт 1017.4 995.4
12 17.08 С 2 4000 м мгла 4/0
[Ci fib]
+21.3 +9.6 47 +23 +23 комфорт 1017.2 995.1 +23.1
15 17.08 СЗ 2 н/о мгла 3/0
[Ci fib]
+14.6 +8.7 68 +14 +14 1018.1 995.4
18 17.08 СЗ 1 н/о мгла 3/0
[Ci fib]
+10.4 +7.9 84 +10 +10 1018.6 995.6
21 17.08 СЗ 1 2000 м мгла 4/0
[Ac trans Ci fib]
+8.0 +6.9 93 +7 +7 1019.2 996.0
00 18.08 З 2 500 м туман ?/? +7.6 +7.4 99 +5 +5 1019.4 996.2 +6.5
03 18.08 ЮЗ 1 2000 м мгла {туман} ?/? +15.0 +9.6 70 +16 +16 1018.5 995.8
06 18.08 СВ 3 4000 м мгла {туман} ясно +23.3 +4.9 30 +23 +30 комфорт 1015.6 993.6
09 18.08 В 3 4000 м мгла 3/3 1000 м
[Cu hum]
+24.6 +3.4 25 +24 +26 комфорт 1014.2 992.4
12 18.08 В 2 4000 м мгла 4/0
[Ci sp]
+22.5 +1.8 26 +22 +22 комфорт 1013.2 991.2 +24.8
15 18.08 С 2 н/о мгла 8/0
[Ci fib]
+13.2 +3.7 52 +13 +13 1015.4 992.6
18 18.08 штиль 0 н/о мгла 8/0
[Ci fib]
+7.7 +4.5 80 +7 +7 1016.4 993.2
21 18.08 штиль 0 4000 м мгла 10/0
[Ci fib]
+4.4 +2.9 90 +3 +3 1017.6 994.0
00 19.08 ЮВ 1 4000 м мгла 10/0
[Ac trans Ci fib]
+5.7 +3.6 86 +5 +6 1018.1 994.7 +3.4
03 19.08 З 1 4000 м мгла 6/0
[Ac lent Ci fib]
+12.5 +6.9 69 +13 +18 1016.8 994.0
06 19.08 С 3 4000 м мгла 4/0
[Ci fib]
+23.6 +6.3 33 +24 +30 комфорт 1014.7 992.7
09 19.08 С 3 10 км дым 4/3 1000 м
[Cu hum Ci fib]
+25.2 +5.5 28 +25 +27 комфорт 1013.5 991.7
12 19.08 СВ 2 10 км дым 4/0
[Ci fib]
+21.0 +5.6 37 +23 +23 комфорт 1014.0 991.9 +25.6
15 19.08 СЗ 2 н/о мгла 3/0
[Ci fib]
+14.5 +6.2 57 +14 +14 1015.5 992.8
18 19.08 СЗ 2 н/о мгла 3/0
[Ci fib]
+10.8 +5.4 69 +10 +10 1016.7 993.7
21 19.08 З 2 2000 м мгла 8/8 1000 м
[Sc]
+8.1 +5.9 86 +6 +6 1017.7 994.5
00 20.08 З 3 2000 м мгла 8/8 1000 м
[Cu Sc]
+9.9 +7.2 83 +8 +8 1018.3 995.2 +8.0
03 20.08 ЮЗ 2 4000 м мгла 6/6 1000 м
[Cu Sc]
+16.8 +7.7 55 +17 +20 1017.1 994.6
06 20.08 С 3 10 км дым 8/5 600 м
[Cb cap Ci fib]
+24.2 +7.0 33 +24 +27 комфорт 1015.7 993.7
09 20.08 СВ 3 10 км дым 8/8 600 м
[Cb cap]
+23.6 +7.1 35 +24 +25 комфорт 1015.2 993.2
12 20.08 СВ 2 10 км дым 8/0
[Ac trans Ci fib]
+20.8 +5.5 37 +22 +22 комфорт 1015.9 993.7 +25.2
15 20.08 СВ 3 н/о дым 6/3 1000 м
[Cu hum Ac trans Ci fib]
+15.6 +4.2 47 +15 +15 1018.0 995.4
18 20.08 СЗ 1 н/о дым 8/3 1000 м
[Cu hum Ci sp]
+13.4 +4.5 55 +14 +14 1019.3 996.5
21 20.08 СЗ 1 10 км дым 6/3 1000 м
[Sc Ci fib]
+10.5 +6.0 74 +10 +10 1020.3 997.3
00 21.08 ЮЗ 1 10 км дым 9/9 600 м
[Cb cap]
+13.3 +6.9 65 +14 +14 1020.8 997.9 +9.1
03 21.08 С 3 2000 м мгла 10/6 600 м
[Cb cap Ac trans]
+17.6 +7.3 51 +18 +18 1020.2 997.7
06 21.08 С 3 10 км дым 10/4 600 м
[Cb cap Ac trans]
+19.2 +8.0 48 +20 +22 1018.8 996.5
09 21.08 В 2 20 км 9/8 600 м
[Cb cap Ac trans]
+18.0 +8.1 52 +19 +19 1018.4 996.0
12 21.08 СВ 1 20 км 9/8 600 м
[Cb cap Ac trans]
+18.4 +9.3 55 +20 +20 1017.9 995.6 +20.5
15 21.08 С 2 н/о 10/10 600 м
[Cb cap]
+16.0 +8.1 59 +16 +16 1018.1 995.5
18 21.08 С 1 н/о 6/6 600 м
[Cb cap]
+12.8 +8.6 76 +13 +13 1018.0 995.2
21 21.08 СЗ 1 н/о мгла 10/10 600 м
[Cb cap]
+10.6 +8.8 89 +10 +10 1018.1 995.1

 

Местоположение метеостанции Тура (Эвенкия, Россия): широта 64.33 долгота 100.40 высота над уровнем моря 624 м.

В архиве по умолчанию представлена погода в Туре за последнюю неделю. Архивные данные за месяц целиком и за предыдущие месяцы, начиная с января 2011 года, Вы можете получить, выбрав интересующий диапазон дат из раскрывающегося списка и нажав кнопку "Ввод!".


*Определитесь, кто Вы:
робот инопланетянин человек

Внимание! Время в таблицах - всемирное. Для получения местного времени необходимо прибавить поправку, которая равна 7 ч.

Смотрите также архив погоды в соседних городах и на ближайших метеорологических станциях:

Погода в Тембенчи (Эвенкия, Россия) (99 км)
Погода в Кербо (Эвенкия, Россия) (182 км)
Погода в Кислокане (Эвенкия, Россия) (190 км)
Погода в Стрелке-Чуне (Эвенкия, Россия) (311 км)
Погода в Тутончанах (Эвенкия, Россия) (320 км)
Погода в Муторае (Эвенкия, Россия) (334 км)
Погода в Байките (Эвенкия, Россия) (359 км)
Погода в Агате (Эвенкия, Россия) (426 км)
Погода в Усть-Камо (Эвенкия, Россия) (428 км)
Погода в Ванаваре (Эвенкия, Россия) (456 км)

Пояснения к столбцам:

Ветер - указаны скорость ветра в м/с - средняя за 10 мин, порывы в срок и между сроками (в фигурных скобках) и направление, откуда дует ветер: С - северный, СВ - северо-восточный, В - восточный, ЮВ - юго-восточный, Ю - южный, ЮЗ - юго-западный, З - западный, СЗ - северо-западный.
Видимость - горизонтальная дальность видимости в метрах или километрах. При видимости от 1 до 10 км при отсутствии осадков обычно наблюдается дымка, при ухудшении видимости до 1 км и менее - туман. В сухую погоду видимость может ухудшаться дымом, пылью или мглою.
Явления - указаны атмосферные явления, наблюдавшиеся в срок или в последний час перед сроком; фигурными скобками обозначены явления, наблюдавшиеся между сроками (за 1-3 часа до срока); квадратными скобками обозначены град или гололедные отложения с указанием их диаметра в мм.
Облачность - указаны через наклонную черту общая и нижняя облачность в баллах и высота нижней границы облаков в метрах; квадратными скобками обозначены формы облаков: Ci - перистые, Cs - перисто-слоистые, Cc - перисто-кучевые, Ac - высококучевые, As - высокослоистые, Sc - слоисто-кучевые, Ns - слоисто-дождевые, Cu - кучевые, Cb - кучево-дождевые. Подробнее классификацию облаков см. в Атласе облаков (PDF).
T - Температура воздуха - температура, измеренная на высоте 2 м над землей.
Td - Температура точки росы - температура, при понижении до которой содержащийся в воздухе водяной пар достигнет насыщения.
f - Относительная влажность воздуха - влажноcть воздуха, измеренная на высоте 2 м над землей.
Te - Эффективная температура - температура, которую ощущает одетый по сезону человек в тени. Характеристика душности погоды. При расчете учитывается влияние влажности воздуха и скорости ветра на теплоощущения человека.
Tes - Эффективная температура на солнце - температура, которую ощущает человек, с поправкой на солнечный нагрев. Характеристика знойности погоды. Зависит от высоты солнца над горизонтом, облачности и скорости ветра. Ночью, в пасмурную погоду, а также при ветре 12 м/с и более поправка равна нулю.
P - Атмосферное давление - приведенное к уровню моря атмосферное давление.
Po - Атмосферное давление - измеренное на уровне метеостанции атмосферное давление.
Tmin - Минимальная температура - минимум температуры воздуха на высоте 2 м над землей.
Tmax - Максимальная температура - максимум температуры воздуха на высоте 2 м над землей.
R - Количество осадков - Количество выпавших осадков за период времени, мм. При наведении курсора мыши на число - период времени, за который выпало указанное количество осадков.
R24 - Количество осадков - Количество выпавших осадков за 24 часа, мм.
S - Снежный покров - Высота снежного покрова, см. При наведении курсора мыши на число - состояние снежного покрова и степень покрытия местности в баллах.